CTV197 WADD-WIHH

Flight info

Callsign CTV197
Flight time 1h 32m
Altitude 38000
Route OKANG T4 FARIZ T6 KURUS
Aircraft A320/M-SDE2E3FGHIRWY/LB1

Departure

Time 2026-04-11 03:08
Airport Denpasar I Gusti Ngurah Rai International Airport (WADD)

Arrival

Time 2026-04-11 04:41
Airport Halim Perdanakusuma International Airport (WIHH)
Time Latitude Longitude Altitude Speed Heading
2026-04-11 02:44 -8.74560 115.16541 33 ft 0 kts 357°
2026-04-11 02:58 -8.74561 115.16541 33 ft 1 kts 357°
2026-04-11 02:59 -8.74577 115.16541 33 ft 3 kts 357°
2026-04-11 02:59 -8.74597 115.16542 32 ft 3 kts 357°
2026-04-11 02:59 -8.74618 115.16543 31 ft 3 kts 357°
2026-04-11 02:59 -8.74638 115.16544 31 ft 3 kts 357°
2026-04-11 03:00 -8.74650 115.16545 33 ft 2 kts 357°
2026-04-11 03:00 -8.74656 115.16545 31 ft 0 kts 22°
2026-04-11 03:00 -8.74666 115.16542 31 ft 2 kts 343°
2026-04-11 03:01 -8.74679 115.16552 31 ft 2 kts 271°
2026-04-11 03:01 -8.74679 115.16560 32 ft 0 kts 241°
2026-04-11 03:03 -8.74682 115.16554 32 ft 3 kts 245°
2026-04-11 03:03 -8.74687 115.16531 31 ft 5 kts 260°
2026-04-11 03:03 -8.74689 115.16494 32 ft 5 kts 266°
2026-04-11 03:04 -8.74691 115.16461 32 ft 6 kts 266°
2026-04-11 03:04 -8.74693 115.16406 32 ft 9 kts 269°
2026-04-11 03:04 -8.74694 115.16348 33 ft 9 kts 268°
2026-04-11 03:04 -8.74697 115.16271 31 ft 13 kts 268°
2026-04-11 03:05 -8.74702 115.16164 33 ft 15 kts 267°
2026-04-11 03:05 -8.74706 115.16061 33 ft 14 kts 268°
2026-04-11 03:05 -8.74710 115.15968 33 ft 14 kts 268°
2026-04-11 03:05 -8.74714 115.15857 33 ft 16 kts 268°
2026-04-11 03:06 -8.74719 115.15751 32 ft 14 kts 268°
2026-04-11 03:06 -8.74722 115.15656 32 ft 13 kts 268°
2026-04-11 03:06 -8.74726 115.15569 32 ft 12 kts 268°
2026-04-11 03:06 -8.74729 115.15480 32 ft 13 kts 268°
2026-04-11 03:07 -8.74759 115.15404 32 ft 11 kts 210°
2026-04-11 03:07 -8.74837 115.15393 29 ft 12 kts 174°
2026-04-11 03:07 -8.74893 115.15430 29 ft 10 kts 99°
2026-04-11 03:07 -8.74892 115.15517 29 ft 23 kts 88°
2026-04-11 03:08 -8.74841 115.16806 27 ft 148 kts 88°
2026-04-11 03:08 -8.74791 115.17959 455 ft 159 kts 88°
2026-04-11 03:08 -8.74731 115.19088 1071 ft 164 kts 87°
2026-04-11 03:09 -8.74667 115.20258 1645 ft 170 kts 86°
2026-04-11 03:09 -8.74602 115.21479 2115 ft 182 kts 87°
2026-04-11 03:09 -8.74553 115.22831 2411 ft 204 kts 88°
2026-04-11 03:09 -8.74501 115.24375 2712 ft 229 kts 88°
2026-04-11 03:10 -8.74443 115.26067 3107 ft 252 kts 88°
2026-04-11 03:10 -8.74378 115.27874 3809 ft 261 kts 88°
2026-04-11 03:10 -8.74309 115.29720 4673 ft 264 kts 88°
2026-04-11 03:10 -8.74236 115.31592 5471 ft 268 kts 88°
2026-04-11 03:11 -8.74161 115.33489 6285 ft 272 kts 88°
2026-04-11 03:11 -8.74083 115.35413 7043 ft 276 kts 88°
2026-04-11 03:11 -8.74004 115.37368 7801 ft 280 kts 88°
2026-04-11 03:11 -8.73922 115.39351 8558 ft 285 kts 88°
2026-04-11 03:12 -8.73839 115.41369 8894 ft 288 kts 88°
2026-04-11 03:12 -8.73754 115.43393 8986 ft 288 kts 87°
2026-04-11 03:12 -8.73335 115.45387 9486 ft 293 kts 66°
2026-04-11 03:12 -8.72200 115.47101 10233 ft 297 kts 44°
2026-04-11 03:13 -8.70441 115.48260 10613 ft 316 kts 20°
2026-04-11 03:13 -8.68193 115.48507 10799 ft 339 kts 351°
2026-04-11 03:13 -8.65979 115.47610 11220 ft 351 kts 323°
2026-04-11 03:13 -8.64374 115.45750 11791 ft 357 kts 297°
2026-04-11 03:14 -8.63363 115.43445 12424 ft 361 kts 291°
2026-04-11 03:14 -8.62444 115.41033 13086 ft 365 kts 290°
2026-04-11 03:14 -8.61578 115.38610 13715 ft 368 kts 289°
2026-04-11 03:14 -8.60714 115.36158 14264 ft 372 kts 289°
2026-04-11 03:15 -8.59833 115.33688 14820 ft 375 kts 290°
2026-04-11 03:15 -8.58932 115.31200 15380 ft 378 kts 290°
2026-04-11 03:15 -8.58011 115.28701 15934 ft 381 kts 290°
2026-04-11 03:15 -8.57070 115.26186 16480 ft 384 kts 290°
2026-04-11 03:16 -8.56116 115.23646 16975 ft 389 kts 290°
2026-04-11 03:16 -8.55157 115.21088 17522 ft 391 kts 290°
2026-04-11 03:16 -8.54190 115.18503 18043 ft 395 kts 290°
2026-04-11 03:16 -8.53215 115.15895 18496 ft 399 kts 290°
2026-04-11 03:17 -8.52233 115.13263 18958 ft 401 kts 290°
2026-04-11 03:17 -8.51248 115.10625 19492 ft 402 kts 290°
2026-04-11 03:17 -8.50259 115.07978 19985 ft 404 kts 290°
2026-04-11 03:17 -8.49264 115.05314 20458 ft 407 kts 290°
2026-04-11 03:18 -8.48244 115.02644 20934 ft 409 kts 294°
2026-04-11 03:18 -8.46855 115.00132 21415 ft 411 kts 304°
2026-04-11 03:18 -8.44994 114.97923 21874 ft 415 kts 316°
2026-04-11 03:18 -8.42728 114.96109 22335 ft 418 kts 327°
2026-04-11 03:19 -8.40237 114.94576 22782 ft 420 kts 328°
2026-04-11 03:19 -8.37727 114.93044 23222 ft 423 kts 328°
2026-04-11 03:19 -8.35204 114.91503 23638 ft 425 kts 328°
2026-04-11 03:19 -8.32660 114.89964 23976 ft 428 kts 329°
2026-04-11 03:20 -8.30089 114.88434 24320 ft 430 kts 329°
2026-04-11 03:20 -8.27501 114.86907 24663 ft 432 kts 329°
2026-04-11 03:20 -8.24900 114.85375 24990 ft 434 kts 329°
2026-04-11 03:20 -8.22285 114.83835 25314 ft 436 kts 329°
2026-04-11 03:21 -8.19624 114.82263 25643 ft 438 kts 329°
2026-04-11 03:21 -8.16990 114.80703 25940 ft 440 kts 329°
2026-04-11 03:21 -8.14341 114.79132 26246 ft 443 kts 329°
2026-04-11 03:21 -8.11684 114.77554 26535 ft 445 kts 329°
2026-04-11 03:22 -8.09012 114.75965 26821 ft 447 kts 329°
2026-04-11 03:22 -8.06330 114.74373 27118 ft 449 kts 329°
2026-04-11 03:22 -8.03630 114.72774 27403 ft 451 kts 329°
2026-04-11 03:22 -8.00920 114.71172 27688 ft 452 kts 329°
2026-04-11 03:23 -7.98199 114.69564 27971 ft 454 kts 329°
2026-04-11 03:23 -7.95487 114.67914 28230 ft 456 kts 325°
2026-04-11 03:23 -7.93026 114.65894 28479 ft 458 kts 315°
2026-04-11 03:23 -7.90950 114.63454 28692 ft 460 kts 304°
2026-04-11 03:24 -7.89345 114.60665 28916 ft 461 kts 293°
2026-04-11 03:24 -7.88257 114.57618 29161 ft 462 kts 284°
2026-04-11 03:24 -7.87435 114.54480 29400 ft 464 kts 284°
2026-04-11 03:24 -7.86605 114.51326 29640 ft 466 kts 284°
2026-04-11 03:25 -7.85774 114.48164 29889 ft 467 kts 284°
2026-04-11 03:25 -7.84937 114.44987 30097 ft 469 kts 284°
2026-04-11 03:25 -7.84095 114.41803 30291 ft 471 kts 284°
2026-04-11 03:25 -7.83247 114.38607 30495 ft 472 kts 284°
2026-04-11 03:26 -7.82398 114.35403 30704 ft 473 kts 284°
2026-04-11 03:26 -7.81554 114.32195 30895 ft 474 kts 284°
2026-04-11 03:26 -7.80710 114.28979 31074 ft 475 kts 284°
2026-04-11 03:26 -7.79864 114.25762 31318 ft 474 kts 284°
2026-04-11 03:27 -7.79016 114.22552 31579 ft 473 kts 284°
2026-04-11 03:27 -7.78167 114.19348 31838 ft 473 kts 284°
2026-04-11 03:27 -7.77318 114.16152 32100 ft 472 kts 284°
2026-04-11 03:27 -7.76471 114.12957 32363 ft 471 kts 284°
2026-04-11 03:28 -7.75538 114.09796 32607 ft 471 kts 290°
2026-04-11 03:28 -7.74161 114.06799 32864 ft 472 kts 298°
2026-04-11 03:28 -7.72990 114.04904 33054 ft 471 kts 302°
2026-04-11 03:28 -7.71189 114.02145 33334 ft 470 kts 302°
2026-04-11 03:29 -7.69391 113.99393 33626 ft 469 kts 302°
2026-04-11 03:29 -7.67599 113.96648 33909 ft 468 kts 302°
2026-04-11 03:29 -7.65235 113.93017 34234 ft 467 kts 302°
2026-04-11 03:29 -7.64029 113.91167 34395 ft 467 kts 302°
2026-04-11 03:30 -7.62249 113.88429 34575 ft 468 kts 302°
2026-04-11 03:30 -7.60462 113.85680 34781 ft 469 kts 302°
2026-04-11 03:30 -7.58672 113.82932 34999 ft 469 kts 302°
2026-04-11 03:30 -7.56884 113.80188 35215 ft 468 kts 302°
2026-04-11 03:31 -7.55096 113.77445 35434 ft 468 kts 302°
2026-04-11 03:31 -7.53309 113.74709 35649 ft 467 kts 302°
2026-04-11 03:31 -7.51529 113.71983 35894 ft 465 kts 302°
2026-04-11 03:31 -7.49755 113.69263 36116 ft 464 kts 302°
2026-04-11 03:32 -7.47986 113.66548 36308 ft 463 kts 302°
2026-04-11 03:32 -7.46219 113.63835 36506 ft 463 kts 302°
2026-04-11 03:32 -7.44452 113.61125 36688 ft 462 kts 302°
2026-04-11 03:32 -7.42686 113.58420 36869 ft 462 kts 302°
2026-04-11 03:33 -7.40919 113.55719 37049 ft 462 kts 302°
2026-04-11 03:33 -7.39155 113.53018 37229 ft 461 kts 302°
2026-04-11 03:33 -7.37392 113.50323 37404 ft 461 kts 302°
2026-04-11 03:33 -7.35629 113.47630 37576 ft 460 kts 302°
2026-04-11 03:34 -7.33872 113.44937 37726 ft 460 kts 302°
2026-04-11 03:34 -7.32117 113.42245 37893 ft 459 kts 302°
2026-04-11 03:34 -7.28609 113.36874 37950 ft 458 kts 302°
2026-04-11 03:35 -7.25100 113.31517 37945 ft 458 kts 302°
2026-04-11 03:35 -7.21595 113.26164 37946 ft 458 kts 302°
2026-04-11 03:36 -7.18092 113.20806 37949 ft 458 kts 302°
2026-04-11 03:36 -7.14584 113.15455 37954 ft 458 kts 302°
2026-04-11 03:37 -7.11050 113.10062 37950 ft 458 kts 302°
2026-04-11 03:37 -7.07546 113.04697 37952 ft 459 kts 302°
2026-04-11 03:38 -7.04037 112.99329 37953 ft 459 kts 302°
2026-04-11 03:38 -7.00517 112.93967 37959 ft 459 kts 303°
2026-04-11 03:39 -6.96995 112.88604 37965 ft 460 kts 302°
2026-04-11 03:39 -6.93472 112.83231 37965 ft 460 kts 302°
2026-04-11 03:40 -6.89956 112.77859 37962 ft 460 kts 302°
2026-04-11 03:40 -6.86432 112.72487 37963 ft 460 kts 303°
2026-04-11 03:41 -6.82904 112.67118 37963 ft 460 kts 303°
2026-04-11 03:41 -6.79375 112.61749 37963 ft 460 kts 303°
2026-04-11 03:42 -6.75851 112.56379 37960 ft 460 kts 303°
2026-04-11 03:42 -6.72329 112.51012 37965 ft 460 kts 302°
2026-04-11 03:43 -6.68810 112.45645 37964 ft 459 kts 303°
2026-04-11 03:43 -6.65281 112.40288 37960 ft 459 kts 302°
2026-04-11 03:44 -6.61755 112.34931 37960 ft 459 kts 302°
2026-04-11 03:44 -6.58204 112.29534 37964 ft 459 kts 302°
2026-04-11 03:45 -6.54676 112.24176 37962 ft 459 kts 302°
2026-04-11 03:45 -6.51151 112.18813 37961 ft 460 kts 302°
2026-04-11 03:46 -6.47622 112.13452 37963 ft 460 kts 302°
2026-04-11 03:46 -6.44092 112.08091 37965 ft 460 kts 302°
2026-04-11 03:47 -6.40563 112.02729 37967 ft 460 kts 302°
2026-04-11 03:47 -6.37029 111.97372 37966 ft 459 kts 302°
2026-04-11 03:48 -6.33499 111.92019 37962 ft 460 kts 302°
2026-04-11 03:48 -6.29970 111.86656 37964 ft 460 kts 302°
2026-04-11 03:49 -6.26443 111.81289 37961 ft 460 kts 302°
2026-04-11 03:49 -6.22913 111.75929 37963 ft 460 kts 302°
2026-04-11 03:50 -6.19379 111.70581 37968 ft 459 kts 302°
2026-04-11 03:50 -6.15846 111.65238 37965 ft 459 kts 302°
2026-04-11 03:51 -6.12315 111.59897 37959 ft 458 kts 302°
2026-04-11 03:51 -6.08790 111.54557 37958 ft 458 kts 302°
2026-04-11 03:52 -6.05263 111.49221 37963 ft 459 kts 302°
2026-04-11 03:52 -6.01737 111.43880 37962 ft 459 kts 302°
2026-04-11 03:53 -5.98201 111.38538 37960 ft 459 kts 303°
2026-04-11 03:53 -5.94669 111.33193 37965 ft 459 kts 302°
2026-04-11 03:54 -5.91133 111.27853 37964 ft 459 kts 302°
2026-04-11 03:54 -5.88479 111.22075 37968 ft 456 kts 283°
2026-04-11 03:55 -5.87931 111.15751 37967 ft 452 kts 263°
2026-04-11 03:55 -5.88627 111.09478 37963 ft 452 kts 262°
2026-04-11 03:56 -5.89322 111.03195 37961 ft 453 kts 262°
2026-04-11 03:56 -5.90014 110.96902 37962 ft 453 kts 262°
2026-04-11 03:57 -5.90715 110.90612 37971 ft 454 kts 262°
2026-04-11 03:57 -5.91417 110.84312 37969 ft 454 kts 262°
2026-04-11 03:58 -5.92119 110.78015 37970 ft 454 kts 262°
2026-04-11 03:58 -5.92815 110.71713 37968 ft 454 kts 262°
2026-04-11 03:59 -5.93512 110.65417 37968 ft 454 kts 262°
2026-04-11 03:59 -5.94216 110.59119 37971 ft 454 kts 262°
2026-04-11 04:00 -5.94913 110.52820 37969 ft 453 kts 262°
2026-04-11 04:00 -5.95604 110.46532 37968 ft 453 kts 262°
2026-04-11 04:01 -5.96297 110.40241 37969 ft 453 kts 262°
2026-04-11 04:01 -5.96506 110.33916 37968 ft 453 kts 269°
2026-04-11 04:02 -5.96507 110.27582 37965 ft 454 kts 268°
2026-04-11 04:02 -5.96507 110.22321 37965 ft 454 kts 268°
2026-04-11 04:03 -5.96501 110.15984 37967 ft 454 kts 268°
2026-04-11 04:03 -5.96500 110.09650 37968 ft 454 kts 268°
2026-04-11 04:04 -5.96498 110.03311 37969 ft 453 kts 268°
2026-04-11 04:04 -5.96501 109.96939 37969 ft 453 kts 268°
2026-04-11 04:05 -5.96502 109.90611 37971 ft 453 kts 269°
2026-04-11 04:05 -5.96491 109.84279 37970 ft 453 kts 269°
2026-04-11 04:06 -5.96488 109.77951 37966 ft 453 kts 268°
2026-04-11 04:06 -5.96488 109.71629 37971 ft 452 kts 269°
2026-04-11 04:07 -5.96478 109.65317 37971 ft 452 kts 269°
2026-04-11 04:07 -5.96472 109.59012 37970 ft 451 kts 268°
2026-04-11 04:08 -5.96466 109.52710 37972 ft 451 kts 269°
2026-04-11 04:08 -5.96446 109.46413 37970 ft 451 kts 269°
2026-04-11 04:09 -5.96428 109.40116 37967 ft 451 kts 269°
2026-04-11 04:09 -5.96421 109.33819 37965 ft 451 kts 269°
2026-04-11 04:10 -5.96421 109.30669 37777 ft 451 kts 269°
2026-04-11 04:10 -5.96420 109.27493 36826 ft 457 kts 269°
2026-04-11 04:10 -5.96415 109.24300 36072 ft 458 kts 269°
2026-04-11 04:10 -5.96409 109.21050 35230 ft 461 kts 269°
2026-04-11 04:11 -5.96403 109.17819 34364 ft 465 kts 269°
2026-04-11 04:11 -5.96393 109.14562 33476 ft 468 kts 269°
2026-04-11 04:11 -5.96383 109.11316 32945 ft 462 kts 269°
2026-04-11 04:11 -5.96377 109.08098 32326 ft 458 kts 269°
2026-04-11 04:12 -5.96374 109.04909 31722 ft 455 kts 269°
2026-04-11 04:12 -5.96369 109.01745 31126 ft 452 kts 269°
2026-04-11 04:12 -5.96364 108.98595 30536 ft 450 kts 269°
2026-04-11 04:12 -5.96357 108.95462 29940 ft 447 kts 269°
2026-04-11 04:13 -5.96347 108.92348 29310 ft 444 kts 269°
2026-04-11 04:13 -5.96336 108.89261 28745 ft 440 kts 269°
2026-04-11 04:13 -5.96326 108.86206 28171 ft 436 kts 269°
2026-04-11 04:13 -5.96317 108.83173 27622 ft 432 kts 269°
2026-04-11 04:14 -5.96308 108.80168 27081 ft 428 kts 269°
2026-04-11 04:14 -5.96300 108.77188 26541 ft 425 kts 269°
2026-04-11 04:14 -5.96295 108.74234 26027 ft 421 kts 269°
2026-04-11 04:14 -5.96291 108.71265 25519 ft 418 kts 269°
2026-04-11 04:15 -5.96278 108.65477 24536 ft 412 kts 269°
2026-04-11 04:15 -5.96267 108.62609 24055 ft 409 kts 269°
2026-04-11 04:15 -5.96254 108.59759 23565 ft 407 kts 269°
2026-04-11 04:16 -5.96242 108.56922 23004 ft 405 kts 269°
2026-04-11 04:16 -5.96233 108.54109 22520 ft 401 kts 269°
2026-04-11 04:16 -5.96224 108.51317 22031 ft 398 kts 269°
2026-04-11 04:16 -5.96440 108.48569 21530 ft 394 kts 258°
2026-04-11 04:17 -5.97195 108.45934 21051 ft 390 kts 246°
2026-04-11 04:17 -5.98365 108.43486 20549 ft 388 kts 242°
2026-04-11 04:17 -5.99576 108.41071 20055 ft 386 kts 242°
2026-04-11 04:17 -6.00776 108.38666 19563 ft 385 kts 243°
2026-04-11 04:18 -6.01971 108.36267 19063 ft 383 kts 243°
2026-04-11 04:18 -6.03164 108.33875 18570 ft 382 kts 243°
2026-04-11 04:18 -6.04354 108.31491 18058 ft 381 kts 243°
2026-04-11 04:18 -6.05545 108.29113 17546 ft 379 kts 243°
2026-04-11 04:19 -6.06724 108.26758 17068 ft 376 kts 243°
2026-04-11 04:19 -6.07892 108.24419 16590 ft 373 kts 243°
2026-04-11 04:19 -6.09048 108.22098 16120 ft 369 kts 243°
2026-04-11 04:19 -6.10174 108.19837 15674 ft 354 kts 243°
2026-04-11 04:20 -6.11253 108.17671 15220 ft 340 kts 243°
2026-04-11 04:20 -6.12308 108.15554 14813 ft 339 kts 243°
2026-04-11 04:20 -6.13359 108.13434 14384 ft 339 kts 244°
2026-04-11 04:20 -6.14401 108.11312 13939 ft 339 kts 244°
2026-04-11 04:21 -6.15436 108.09189 13480 ft 338 kts 244°
2026-04-11 04:21 -6.16466 108.07070 13039 ft 337 kts 244°
2026-04-11 04:21 -6.17492 108.04962 12589 ft 335 kts 244°
2026-04-11 04:21 -6.18515 108.02867 12195 ft 331 kts 244°
2026-04-11 04:22 -6.19525 108.00802 12077 ft 319 kts 244°
2026-04-11 04:22 -6.20466 107.98839 11860 ft 304 kts 248°
2026-04-11 04:22 -6.21064 107.96840 11338 ft 297 kts 260°
2026-04-11 04:22 -6.21204 107.94781 10945 ft 297 kts 271°
2026-04-11 04:23 -6.21142 107.92707 10590 ft 296 kts 271°
2026-04-11 04:23 -6.21091 107.90642 10245 ft 295 kts 271°
2026-04-11 04:23 -6.21045 107.88592 10039 ft 293 kts 270°
2026-04-11 04:23 -6.20999 107.86548 9873 ft 293 kts 270°
2026-04-11 04:24 -6.20953 107.84504 9707 ft 292 kts 270°
2026-04-11 04:24 -6.20906 107.82470 9529 ft 291 kts 271°
2026-04-11 04:24 -6.20861 107.80437 9353 ft 290 kts 270°
2026-04-11 04:24 -6.20816 107.78411 9177 ft 290 kts 271°
2026-04-11 04:25 -6.20771 107.76387 9011 ft 289 kts 270°
2026-04-11 04:25 -6.20727 107.74370 8828 ft 289 kts 271°
2026-04-11 04:25 -6.20681 107.72360 8655 ft 287 kts 271°
2026-04-11 04:25 -6.20633 107.70360 8484 ft 286 kts 271°
2026-04-11 04:26 -6.20587 107.68363 8312 ft 285 kts 271°
2026-04-11 04:26 -6.20540 107.66374 8142 ft 284 kts 271°
2026-04-11 04:26 -6.20494 107.64393 7980 ft 284 kts 271°
2026-04-11 04:26 -6.20447 107.62411 7805 ft 283 kts 271°
2026-04-11 04:27 -6.20401 107.60438 7635 ft 280 kts 271°
2026-04-11 04:27 -6.20355 107.58524 7466 ft 269 kts 271°
2026-04-11 04:27 -6.20308 107.56691 7293 ft 254 kts 271°
2026-04-11 04:27 -6.20264 107.54970 7130 ft 241 kts 271°
2026-04-11 04:28 -6.20222 107.53320 6964 ft 232 kts 271°
2026-04-11 04:28 -6.20182 107.51729 6804 ft 224 kts 270°
2026-04-11 04:28 -6.20144 107.50173 6642 ft 216 kts 270°
2026-04-11 04:28 -6.20107 107.48704 6487 ft 210 kts 271°
2026-04-11 04:29 -6.20069 107.47237 6341 ft 206 kts 270°
2026-04-11 04:29 -6.20032 107.45803 6194 ft 205 kts 270°
2026-04-11 04:29 -6.19995 107.44392 6047 ft 204 kts 271°
2026-04-11 04:29 -6.19959 107.42945 5898 ft 205 kts 270°
2026-04-11 04:30 -6.19924 107.41517 5752 ft 204 kts 270°
2026-04-11 04:30 -6.19891 107.40094 5606 ft 203 kts 270°
2026-04-11 04:30 -6.19855 107.38677 5457 ft 203 kts 271°
2026-04-11 04:30 -6.19818 107.37267 5317 ft 201 kts 271°
2026-04-11 04:31 -6.19782 107.35859 5173 ft 202 kts 271°
2026-04-11 04:31 -6.19744 107.34452 5030 ft 201 kts 271°
2026-04-11 04:31 -6.19707 107.33046 4887 ft 202 kts 271°
2026-04-11 04:31 -6.19672 107.31640 4742 ft 200 kts 270°
2026-04-11 04:32 -6.19636 107.30243 4598 ft 200 kts 270°
2026-04-11 04:32 -6.19600 107.28850 4450 ft 200 kts 270°
2026-04-11 04:32 -6.19566 107.27454 4302 ft 200 kts 271°
2026-04-11 04:32 -6.19531 107.26060 4155 ft 199 kts 271°
2026-04-11 04:33 -6.19496 107.24668 4006 ft 199 kts 271°
2026-04-11 04:33 -6.19462 107.23277 3861 ft 199 kts 270°
2026-04-11 04:33 -6.19429 107.21892 3716 ft 199 kts 270°
2026-04-11 04:33 -6.19395 107.20504 3606 ft 198 kts 271°
2026-04-11 04:34 -6.19362 107.19122 3472 ft 198 kts 271°
2026-04-11 04:34 -6.19329 107.17761 3317 ft 190 kts 271°
2026-04-11 04:34 -6.19307 107.16877 3218 ft 184 kts 271°
2026-04-11 04:34 -6.19274 107.15616 3070 ft 178 kts 271°
2026-04-11 04:35 -6.19242 107.14375 2924 ft 177 kts 271°
2026-04-11 04:35 -6.19210 107.13138 2819 ft 177 kts 271°
2026-04-11 04:35 -6.19179 107.11903 2726 ft 177 kts 271°
2026-04-11 04:35 -6.19147 107.10671 2630 ft 177 kts 271°
2026-04-11 04:36 -6.19116 107.09437 2534 ft 176 kts 271°
2026-04-11 04:36 -6.19084 107.08207 2438 ft 176 kts 271°
2026-04-11 04:36 -6.19052 107.06978 2341 ft 176 kts 271°
2026-04-11 04:36 -6.19111 107.05733 2257 ft 176 kts 255°
2026-04-11 04:37 -6.19580 107.04603 2195 ft 176 kts 245°
2026-04-11 04:37 -6.20084 107.03482 2109 ft 176 kts 246°
2026-04-11 04:37 -6.20589 107.02362 2036 ft 176 kts 245°
2026-04-11 04:37 -6.21097 107.01249 2003 ft 175 kts 246°
2026-04-11 04:38 -6.21595 107.00163 1994 ft 165 kts 245°
2026-04-11 04:38 -6.22063 106.99140 1918 ft 158 kts 246°
2026-04-11 04:38 -6.22520 106.98144 1730 ft 155 kts 245°
2026-04-11 04:38 -6.22968 106.97166 1539 ft 154 kts 246°
2026-04-11 04:39 -6.23415 106.96192 1345 ft 154 kts 246°
2026-04-11 04:39 -6.23862 106.95218 1163 ft 153 kts 246°
2026-04-11 04:39 -6.24309 106.94244 985 ft 153 kts 245°
2026-04-11 04:39 -6.24752 106.93277 803 ft 152 kts 245°
2026-04-11 04:40 -6.25193 106.92316 619 ft 150 kts 246°
2026-04-11 04:40 -6.25628 106.91367 409 ft 149 kts 246°
2026-04-11 04:40 -6.26058 106.90428 217 ft 147 kts 246°
2026-04-11 04:40 -6.26488 106.89499 111 ft 145 kts 246°
2026-04-11 04:41 -6.26847 106.88708 93 ft 84 kts 245°
2026-04-11 04:41 -6.26982 106.88413 91 ft 28 kts 245°
2026-04-11 04:41 -6.27064 106.88233 92 ft 28 kts 245°
2026-04-11 04:41 -6.27152 106.88051 93 ft 28 kts 237°
2026-04-11 04:42 -6.27203 106.87923 96 ft 11 kts 301°
2026-04-11 04:42 -6.27156 106.87950 94 ft 13 kts 76°
2026-04-11 04:42 -6.27139 106.88048 93 ft 14 kts 78°
2026-04-11 04:42 -6.27109 106.88132 102 ft 12 kts 66°
2026-04-11 04:43 -6.27075 106.88206 92 ft 11 kts 65°
2026-04-11 04:43 -6.27044 106.88272 91 ft 10 kts 65°
2026-04-11 04:43 -6.27012 106.88341 90 ft 13 kts 65°
2026-04-11 04:43 -6.26968 106.88436 90 ft 15 kts 65°
2026-04-11 04:44 -6.26925 106.88516 91 ft 10 kts 43°
2026-04-11 04:44 -6.26866 106.88526 91 ft 8 kts 346°
2026-04-11 04:44 -6.26815 106.88505 94 ft 9 kts 334°
2026-04-11 04:44 -6.26762 106.88479 93 ft 8 kts 335°
2026-04-11 04:45 -6.26721 106.88490 93 ft 6 kts 47°
2026-04-11 04:45 -6.26704 106.88524 93 ft 6 kts 66°
2026-04-11 04:45 -6.26683 106.88571 93 ft 7 kts 66°
2026-04-11 04:45 -6.26664 106.88616 93 ft 7 kts 66°
2026-04-11 04:46 -6.26641 106.88655 95 ft 5 kts 29°
2026-04-11 04:46 -6.26613 106.88644 94 ft 4 kts 337°
2026-04-11 04:46 -6.26606 106.88641 94 ft 0 kts 338°
2026-04-11 04:46 -6.26598 106.88638 94 ft 0 kts 338°
2026-04-11 04:47 -6.26597 106.88638 94 ft 1 kts 338°
2026-04-11 04:47 -6.26595 106.88637 94 ft 0 kts 338°